Pagina principale
METAR-TAF:

METAR-TAF

Aeroporti :

Monte Argentario, Italia

latitudine: 42-23N, longitudine: 011-10E, altezza: 630 m

Osservazione

Il bollettino è stato emesso 47 minuti fa, alle 03:55 UTC
Vento 6 kt da ovest
Temperature 18°C
Umidità 100%
Pressione 1017 hPa

METAR: LIQO 030355Z AUTO 26006KT //// 18/18 Q1017

Ora: 06:42 (04:42 UTC)


TAF: mancante

Osservazioni e previsioni meteorologiche di più di 4000 aeroporti (messaggi METAR e TAF).

Le stazioni disponibili sono rappresentate dai dischi gialli e rossi sulla carta.

Puntare il mouse per vedere il nome della stazione.

Clicca sopra per visualizzare le osservazioni e previsioni meteorologiche.

Per cambiare la mappa : fare clic sui pulsanti verdi con una croce nera per ingrandire, il pulsante verde con un trattino per diminuire, o sulla freccia verde per le mappe adiacenti.


METAR-TAF: